Regional Weather Roundup
Issued by NWS New Orleans/Baton Rouge, LA

Home | Current Version | Previous Version | Graphics & Text | Print | Product List | Glossary On
Versions: 1 2 3 4 5 6 7 8 9 10 11 12 13 14 15 16 17 18 19 20 21 22 23 24 25 26 27 28 29 30 31 32 33 34 35 36 37 38 39 40 41 42 43 44 45 46 47 48 49 50
877
ASUS44 KLIX 211605
RWRLIX
NEW ORLEANS REGIONAL WEATHER ROUNDUP
NATIONAL WEATHER SERVICE NEW ORLEANS LA
1000 AM CST SUN DEC 21 2014

NOTE: "FAIR" INDICATES FEW OR NO CLOUDS BELOW 12,000 FEET WITH NO
      SIGNIFICANT WEATHER AND/OR OBSTRUCTIONS TO VISIBILITY.
      SKY/WX - SKY CONDITION AND SIGNIFICANT WEATHER.
      TMP - AIR TEMPERATURE.     DP    - DEWPOINT TEMPERATURE.
      RH  - RELATIVE HUMIDITY.   PRES  - PRESSURE.
      HI  - HEAT INDEX.          WCI   - WIND CHILL INDEX.

*  THESE STATIONS ARE NOT NWS OR FAA STATIONS AND ARE NOT UNDER
   NWS QUALITY CONTROL.

LAZ038-040-048-061>063-065>067-069-211700-
SOUTHEAST LOUISIANA

CITY           SKY/WX    TMP DP  RH WIND       PRES   REMARKS
N.O. AUDUBON     N/A     55  50  82 MISG        N/A
N.O. INTL ARPT CLOUDY    54  48  80 E6        30.12R
N.O. LAKEFRONT CLOUDY    55  48  77 E6        30.13R
N.O. DOWNTOWN* CLOUDY    54  46  76 CALM      30.12S
SLIDELL        CLOUDY    54  47  77 NE5       30.11S
BATON ROUGE    CLOUDY    51  45  79 E5        30.13S
BOOTHVILLE     CLOUDY    57  54  89 NE6       30.11S
BELLE CHASSE   CLOUDY    55  50  83 E3        30.11S
BOGALUSA*        N/A     52  45  79 NE5       30.15R
GALLIANO*      CLOUDY    56  52  86 MISG      30.12S
NEW ROADS*     CLOUDY    48  45  90 N3        30.14F
GONZALES*      CLOUDY    52  50  93 CALM      30.13R
HAMMOND*       NOT AVBL
HOUMA*         CLOUDY    54  50  87 NE7       30.12S FOG
PORT FOURCHON* NOT AVBL

$$

MSZ070-080>082-211700-
SOUTHERN MISSISSIPPI

CITY           SKY/WX    TMP DP  RH WIND       PRES   REMARKS
MCCOMB         PTSUNNY   47  43  86 VRB3      30.13R
GULFPORT       CLOUDY    54  49  83 E8        30.12R
BILOXI         CLOUDY    55  50  82 E7        30.12
PASCAGOULA     CLOUDY    55  50  83 E6        30.12S
STENNIS ARPT*  MOSUNNY   54  45  71 NE5       30.11

$$

COASTAL OBSERVATIONS
LAKE AND NEARSHORE STATIONS

STATION/POSITION TIME  TEMP    WIND        PRES    WAVE
                       AIR SEA DIR/SP/G            HT/PER
                 (UTC) (F)     (DEG/KT/KT) (MB)    (FT/S)
PASCAGOULA       1600   54      60/  8/ 11 1019.5
WAVELAND YACHT   1600   53      70/  5/  6 1019.1
GRAND ISLE       1600   56 60   70/  7/ 10 1019.9
SOUTHWEST PASS   1600   58                 1019.4
NEW CANAL        1600   54 55  150/  2/  5 1020.3
SHELL BEACH      1600   54 56   80/  8/ 10 1019.5

OFFSHORE STATIONS

STATION/POSITION TIME  TEMP    WIND        PRES    WAVE
                       AIR SEA DIR/SP/G            HT/PER
                 (UTC) (F)     (DEG/KT/KT) (MB)    (FT/S)
64 S DAUPHIN ISL 1600   65 74   50/ 10/ 12 1018.5    4/ 6

$$




USA.gov is the U.S. government's official web portal to all federal, state and local government web resources and services.